When you browse on this site, cookies collect data to enhance your experience and personalize the content and advertising you see.
Visit our Privacy Policy to learn more. By continuing to use the site, you agree to this use of cookies and data.
  • In Österreich
  • Länderverzeichnis
  • Für 7 Tage
  • Wassertemperatur
  • Satellitenkarten
  • Wetterkarte
  • News
  • Widgets
  • user-avatar
    Anmelden

    Stündliche Wetter Giumri

    Heute, 22 April, Montag

    Zeit Temperatur Niederschläge Wind Luftdruck Luftfeuchtigkeit
    00:00 -2°C° 0.1 mm 4 m/S 630 mmHg 76%
    01:00 -2°C° 0.2 mm 4 m/S 630 mmHg 77%
    02:00 -2°C° 0.2 mm 4 m/S 630 mmHg 77%
    03:00 -1°C° 0.2 mm 3 m/S 630 mmHg 78%
    04:00 -1°C° 0 mm 3 m/S 630 mmHg 77%
    05:00 -2°C° 0 mm 4 m/S 630 mmHg 76%
    06:00 -2°C° 0 mm 4 m/S 630 mmHg 76%
    07:00 -1°C° 0 mm 4 m/S 630 mmHg 71%
    08:00 0°C° 0 mm 4 m/S 630 mmHg 67%
    09:00 +1°C° 0 mm 4 m/S 630 mmHg 63%
    10:00 +3°C° 0 mm 4 m/S 630 mmHg 61%
    11:00 +3°C° 0 mm 5 m/S 630 mmHg 59%
    12:00 +5°C° 0 mm 5 m/S 630 mmHg 57%
    13:00 +4°C° 0 mm 6 m/S 630 mmHg 58%
    14:00 +4°C° 0 mm 6 m/S 630 mmHg 58%
    15:00 +4°C° 0 mm 6 m/S 630 mmHg 59%
    16:00 +3°C° 0 mm 6 m/S 630 mmHg 62%
    17:00 +2°C° 0 mm 5 m/S 630 mmHg 65%
    18:00 +1°C° 0 mm 5 m/S 630 mmHg 68%
    19:00 0°C° 0.1 mm 4 m/S 631 mmHg 71%
    20:00 -1°C° 0.1 mm 4 m/S 631 mmHg 73%
    21:00 0°C° 0.1 mm 3 m/S 632 mmHg 75%
    22:00 -1°C° 0 mm 3 m/S 632 mmHg 75%
    23:00 -1°C° 0 mm 3 m/S 632 mmHg 75%

    Morgen, 23 April, Dienstag

    Zeit Temperatur Niederschläge Wind Luftdruck Luftfeuchtigkeit
    00:00 -1°C° 0 mm 2 m/S 633 mmHg 75%
    01:00 -2°C° 0 mm 2 m/S 633 mmHg 76%
    02:00 -2°C° 0 mm 2 m/S 633 mmHg 76%
    03:00 -2°C° 0 mm 2 m/S 633 mmHg 77%
    04:00 -2°C° 0 mm 2 m/S 634 mmHg 76%
    05:00 -1°C° 0 mm 2 m/S 634 mmHg 75%
    06:00 -1°C° 0 mm 2 m/S 634 mmHg 74%
    07:00 +2°C° 0 mm 2 m/S 635 mmHg 68%
    08:00 +3°C° 0 mm 2 m/S 636 mmHg 62%
    09:00 +5°C° 0 mm 2 m/S 636 mmHg 56%
    10:00 +6°C° 0.1 mm 2 m/S 636 mmHg 54%
    11:00 +7°C° 0.1 mm 2 m/S 637 mmHg 52%
    12:00 +7°C° 0.1 mm 2 m/S 637 mmHg 50%
    13:00 +8°C° 0.2 mm 2 m/S 637 mmHg 52%
    14:00 +8°C° 0.2 mm 2 m/S 636 mmHg 54%
    15:00 +8°C° 0.2 mm 2 m/S 636 mmHg 55%
    16:00 +7°C° 0.2 mm 2 m/S 636 mmHg 60%
    17:00 +6°C° 0.2 mm 2 m/S 636 mmHg 64%
    18:00 +6°C° 0.2 mm 2 m/S 636 mmHg 69%
    19:00 +5°C° 0.1 mm 2 m/S 637 mmHg 73%
    20:00 +4°C° 0.1 mm 2 m/S 637 mmHg 78%
    21:00 +4°C° 0.1 mm 1 m/S 638 mmHg 82%
    22:00 +4°C° 0.1 mm 1 m/S 638 mmHg 84%
    23:00 +3°C° 0.1 mm 1 m/S 638 mmHg 85%

    übermorgen, 24 April, Mittwoch

    Zeit Temperatur Niederschläge Wind Luftdruck Luftfeuchtigkeit
    00:00 +3°C° 0.1 mm 1 m/S 638 mmHg 86%
    01:00 +2°C° 0 mm 1 m/S 638 mmHg 86%
    02:00 +2°C° 0 mm 1 m/S 638 mmHg 86%
    03:00 +1°C° 0 mm 1 m/S 638 mmHg 86%
    04:00 +1°C° 0 mm 1 m/S 638 mmHg 85%
    05:00 +1°C° 0 mm 1 m/S 638 mmHg 83%
    06:00 +1°C° 0 mm 1 m/S 638 mmHg 81%
    07:00 +3°C° 0 mm 1 m/S 639 mmHg 73%
    08:00 +5°C° 0 mm 1 m/S 639 mmHg 65%
    09:00 +6°C° 0 mm 1 m/S 639 mmHg 56%
    10:00 +7°C° 0 mm 1 m/S 639 mmHg 53%
    11:00 +8°C° 0 mm 1 m/S 639 mmHg 50%
    12:00 +9°C° 0 mm 1 m/S 638 mmHg 46%
    13:00 +9°C° 0 mm 2 m/S 638 mmHg 46%
    14:00 +9°C° 0 mm 2 m/S 638 mmHg 45%
    15:00 +10°C° 0 mm 2 m/S 638 mmHg 44%
    16:00 +9°C° 0 mm 2 m/S 638 mmHg 48%
    17:00 +8°C° 0 mm 2 m/S 637 mmHg 52%
    18:00 +8°C° 0 mm 2 m/S 637 mmHg 55%
    19:00 +6°C° 0 mm 2 m/S 637 mmHg 62%
    20:00 +5°C° 0 mm 2 m/S 638 mmHg 68%
    21:00 +3°C° 0 mm 2 m/S 638 mmHg 74%
    22:00 +3°C° 0 mm 2 m/S 638 mmHg 77%
    23:00 +3°C° 0 mm 2 m/S 638 mmHg 79%

    25 April, Donnerstag

    Zeit Temperatur Niederschläge Wind Luftdruck Luftfeuchtigkeit
    00:00 +2°C° 0 mm 2 m/S 638 mmHg 82%
    01:00 +2°C° 0 mm 2 m/S 638 mmHg 82%
    02:00 +1°C° 0 mm 2 m/S 638 mmHg 83%
    03:00 +1°C° 0 mm 2 m/S 638 mmHg 83%
    04:00 +1°C° 0 mm 2 m/S 638 mmHg 81%
    05:00 +1°C° 0 mm 2 m/S 638 mmHg 78%
    06:00 +1°C° 0 mm 2 m/S 638 mmHg 75%
    07:00 +3°C° 0 mm 2 m/S 638 mmHg 66%
    08:00 +6°C° 0 mm 1 m/S 639 mmHg 57%
    09:00 +8°C° 0 mm 1 m/S 639 mmHg 49%
    10:00 +9°C° 0 mm 1 m/S 639 mmHg 47%
    11:00 +10°C° 0 mm 1 m/S 639 mmHg 44%
    12:00 +11°C° 0 mm 1 m/S 639 mmHg 42%
    13:00 +12°C° 0 mm 2 m/S 639 mmHg 43%
    14:00 +12°C° 0 mm 2 m/S 638 mmHg 43%
    15:00 +12°C° 0 mm 2 m/S 638 mmHg 43%
    16:00 +12°C° 0 mm 2 m/S 638 mmHg 47%
    17:00 +10°C° 0 mm 2 m/S 638 mmHg 51%
    18:00 +9°C° 0 mm 3 m/S 638 mmHg 55%
    19:00 +8°C° 0 mm 2 m/S 638 mmHg 60%
    20:00 +6°C° 0 mm 2 m/S 638 mmHg 66%
    21:00 +5°C° 0 mm 2 m/S 638 mmHg 72%
    22:00 +4°C° 0 mm 2 m/S 638 mmHg 74%
    23:00 +4°C° 0 mm 2 m/S 638 mmHg 75%

    26 April, Freitag

    Zeit Temperatur Niederschläge Wind Luftdruck Luftfeuchtigkeit
    00:00 +3°C° 0 mm 2 m/S 638 mmHg 77%
    01:00 +3°C° 0 mm 2 m/S 637 mmHg 79%
    02:00 +3°C° 0 mm 2 m/S 637 mmHg 81%
    03:00 +2°C° 0 mm 2 m/S 637 mmHg 82%
    04:00 +4°C° 0 mm 1 m/S 637 mmHg 82%
    05:00 +4°C° 0 mm 1 m/S 637 mmHg 81%
    06:00 +4°C° 0 mm 1 m/S 637 mmHg 81%
    07:00 +6°C° 0 mm 1 m/S 637 mmHg 73%
    08:00 +8°C° 0 mm 1 m/S 638 mmHg 65%
    09:00 +9°C° 0 mm 1 m/S 638 mmHg 58%
    10:00 +9°C° 0 mm 2 m/S 638 mmHg 55%
    11:00 +10°C° 0 mm 2 m/S 637 mmHg 52%
    12:00 +12°C° 0 mm 2 m/S 637 mmHg 49%
    13:00 +12°C° 0.2 mm 2 m/S 637 mmHg 49%
    14:00 +12°C° 0.2 mm 2 m/S 637 mmHg 50%
    15:00 +13°C° 0.2 mm 2 m/S 636 mmHg 50%
    16:00 +12°C° 0.2 mm 2 m/S 636 mmHg 54%
    17:00 +10°C° 0.2 mm 2 m/S 636 mmHg 58%
    18:00 +9°C° 0.2 mm 2 m/S 636 mmHg 61%
    19:00 +8°C° 0 mm 2 m/S 636 mmHg 67%
    20:00 +7°C° 0 mm 2 m/S 636 mmHg 73%
    21:00 +5°C° 0 mm 2 m/S 636 mmHg 79%
    22:00 +5°C° 0 mm 2 m/S 636 mmHg 81%
    23:00 +4°C° 0 mm 2 m/S 636 mmHg 83%

    27 April, Samstag

    Zeit Temperatur Niederschläge Wind Luftdruck Luftfeuchtigkeit
    00:00 +5°C° 0 mm 1 m/S 636 mmHg 85%
    01:00 +4°C° 0 mm 1 m/S 635 mmHg 86%
    02:00 +4°C° 0 mm 1 m/S 635 mmHg 87%
    03:00 +3°C° 0 mm 1 m/S 635 mmHg 88%
    04:00 +4°C° 0 mm 1 m/S 635 mmHg 87%
    05:00 +4°C° 0 mm 1 m/S 635 mmHg 87%
    06:00 +4°C° 0 mm 1 m/S 635 mmHg 86%
    07:00 +6°C° 0 mm 1 m/S 636 mmHg 77%
    08:00 +8°C° 0 mm 1 m/S 636 mmHg 68%
    09:00 +8°C° 0 mm 2 m/S 636 mmHg 59%
    10:00 +10°C° 0 mm 2 m/S 636 mmHg 55%
    11:00 +12°C° 0 mm 2 m/S 636 mmHg 50%
    12:00 +13°C° 0 mm 2 m/S 636 mmHg 46%
    13:00 +13°C° 0 mm 2 m/S 636 mmHg 44%
    14:00 +13°C° 0 mm 2 m/S 636 mmHg 43%
    15:00 +14°C° 0 mm 2 m/S 635 mmHg 41%
    16:00 +13°C° 0 mm 2 m/S 635 mmHg 44%
    17:00 +13°C° 0 mm 2 m/S 635 mmHg 47%
    18:00 +12°C° 0 mm 2 m/S 635 mmHg 49%
    19:00 +9°C° 0 mm 2 m/S 635 mmHg 54%
    20:00 +9°C° 0 mm 1 m/S 635 mmHg 58%
    21:00 +7°C° 0 mm 1 m/S 634 mmHg 63%
    22:00 +7°C° 0 mm 1 m/S 634 mmHg 65%
    23:00 +6°C° 0 mm 1 m/S 634 mmHg 67%
    Mehr zeigen